TimePST,TemperatureF,Dew PointF,Humidity,Sea Level PressureIn,VisibilityMPH,Wind Direction,Wind SpeedMPH,Gust SpeedMPH,PrecipitationIn,Events,Conditions,WindDirDegrees,DateUTC
12:05 AM,30.2,26.6,86,30.05,6.0,Calm,Calm,-,N/A,,Mostly Cloudy,0,2013-03-08 08:05:00
12:21 AM,30.2,28.4,93,30.05,6.0,Calm,Calm,-,N/A,,Overcast,0,2013-03-08 08:21:00
12:34 AM,32.0,28.4,87,30.05,1.8,Calm,Calm,-,N/A,,Overcast,0,2013-03-08 08:34:00
12:40 AM,32.0,30.2,93,30.05,0.5,Calm,Calm,-,N/A,Fog,Fog,0,2013-03-08 08:40:00
12:53 AM,32.0,30.0,92,30.09,0.5,Calm,Calm,-,N/A,Fog,Fog,0,2013-03-08 08:53:00
1:00 AM,32.0,28.4,87,30.05,0.5,Calm,Calm,-,N/A,Fog,Fog,0,2013-03-08 09:00:00
1:53 AM,32.0,28.9,88,30.08,0.2,Calm,Calm,-,N/A,Fog,Fog,0,2013-03-08 09:53:00
2:53 AM,30.9,28.9,92,30.08,0.2,Calm,Calm,-,N/A,Fog,Light Freezing Fog,0,2013-03-08 10:53:00
3:53 AM,30.9,28.0,89,30.08,0.2,Calm,Calm,-,N/A,Fog,Light Freezing Fog,0,2013-03-08 11:53:00
4:53 AM,30.9,28.0,89,30.08,0.5,East,3.5,-,N/A,Fog,Light Freezing Fog,90,2013-03-08 12:53:00
5:39 AM,30.2,28.4,93,30.04,1.0,East,3.5,-,N/A,,Mist,100,2013-03-08 13:39:00
5:53 AM,30.9,28.9,92,30.08,1.0,Calm,Calm,-,N/A,,Overcast,0,2013-03-08 13:53:00
6:53 AM,30.9,28.0,89,30.09,1.5,ENE,4.6,-,N/A,,Overcast,60,2013-03-08 14:53:00
7:53 AM,30.0,27.0,88,30.11,2.0,North,3.5,-,N/A,,Overcast,10,2013-03-08 15:53:00
8:53 AM,30.9,28.9,92,30.12,5.0,Calm,Calm,-,N/A,,Overcast,0,2013-03-08 16:53:00
9:53 AM,32.0,30.0,92,30.12,5.0,Calm,Calm,-,N/A,,Overcast,0,2013-03-08 17:53:00
10:53 AM,33.1,30.0,89,30.12,7.0,NE,3.5,-,N/A,,Overcast,50,2013-03-08 18:53:00
11:53 AM,35.1,30.0,82,30.11,10.0,Calm,Calm,-,N/A,,Overcast,0,2013-03-08 19:53:00
12:53 PM,37.0,30.9,79,30.09,10.0,Calm,Calm,-,N/A,,Overcast,0,2013-03-08 20:53:00
1:53 PM,37.9,32.0,79,30.09,10.0,Calm,Calm,-,N/A,,Overcast,0,2013-03-08 21:53:00
2:53 PM,37.9,32.0,79,30.09,10.0,Calm,Calm,-,N/A,,Overcast,0,2013-03-08 22:53:00
3:38 PM,39.2,33.8,81,30.03,10.0,Calm,Calm,-,N/A,,Scattered Clouds,0,2013-03-08 23:38:00
3:53 PM,39.0,32.0,76,30.08,10.0,Calm,Calm,-,N/A,,Partly Cloudy,0,2013-03-08 23:53:00
4:53 PM,39.9,32.0,73,30.08,10.0,Calm,Calm,-,N/A,,Clear,0,2013-03-09 00:53:00
5:53 PM,36.0,30.9,82,30.09,10.0,Calm,Calm,-,N/A,,Clear,0,2013-03-09 01:53:00
6:53 PM,33.1,28.9,85,30.11,10.0,ENE,3.5,-,N/A,,Clear,60,2013-03-09 02:53:00
7:53 PM,32.0,28.9,88,30.14,7.0,Calm,Calm,-,N/A,,Clear,0,2013-03-09 03:53:00
8:24 PM,30.2,28.4,93,30.09,1.8,Calm,Calm,-,N/A,,Clear,0,2013-03-09 04:24:00
8:30 PM,30.2,28.4,93,30.09,2.5,Calm,Calm,-,N/A,,Partly Cloudy,0,2013-03-09 04:30:00
8:37 PM,32.0,28.4,87,30.09,4.0,Calm,Calm,-,N/A,,Partly Cloudy,0,2013-03-09 04:37:00
8:53 PM,30.9,28.0,89,30.15,6.0,Calm,Calm,-,N/A,,Clear,0,2013-03-09 04:53:00
9:00 PM,30.2,26.6,86,30.10,1.8,Calm,Calm,-,N/A,,Partly Cloudy,0,2013-03-09 05:00:00
9:22 PM,30.2,28.4,93,30.10,0.5,ENE,3.5,-,N/A,Fog,Light Freezing Fog,60,2013-03-09 05:22:00
9:30 PM,30.2,28.4,93,30.10,1.0,Calm,Calm,-,N/A,,Scattered Clouds,0,2013-03-09 05:30:00
9:34 PM,30.2,28.4,93,30.10,3.0,Calm,Calm,-,N/A,,Partly Cloudy,0,2013-03-09 05:34:00
9:39 PM,30.2,28.4,93,30.10,1.8,Calm,Calm,-,N/A,,Partly Cloudy,0,2013-03-09 05:39:00
9:45 PM,30.2,26.6,86,30.10,0.5,Calm,Calm,-,N/A,Fog,Light Freezing Fog,0,2013-03-09 05:45:00
9:53 PM,30.0,27.0,88,30.16,0.5,Calm,Calm,-,N/A,Fog,Light Freezing Fog,0,2013-03-09 05:53:00
10:21 PM,30.2,26.6,86,30.11,0.5,Calm,Calm,-,N/A,Fog,Light Freezing Fog,0,2013-03-09 06:21:00
10:24 PM,30.2,26.6,86,30.11,1.0,NE,3.5,-,N/A,,Scattered Clouds,40,2013-03-09 06:24:00
10:46 PM,30.2,28.4,93,30.11,3.0,Calm,Calm,-,N/A,,Mostly Cloudy,0,2013-03-09 06:46:00
10:53 PM,30.9,28.0,89,30.16,5.0,Calm,Calm,-,N/A,,Overcast,0,2013-03-09 06:53:00
11:53 PM,32.0,28.9,88,30.17,5.0,Calm,Calm,-,N/A,,Overcast,0,2013-03-09 07:53:00